Find Starlink 32949

NORAD ID: 63145 Int'l Des: 2025-043 Owner: SPXS Country: US Constellation: starlink operational
LEOCIRCULAR

Current View

Loading 3D Globe...

About Starlink 32949

Starlink 32949 (NORAD 63145) is a starlink constellation satellite (v2 mini) launched Mar 3, 2025 by SPXS of US. It operates in LEO, CIRCULAR orbit with a mass of 730.00 kg.

About Starlink 32949

Description loading...

Upcoming Passes

Passes for default location (London). Set your location on the main map for personalized predictions.

Altitude History

Loading altitude history...

Two-Line Element Set

1 63145U 25043P 26170.32970315 .00011798 00000-0 43755-3 0 9992
2 63145 43.0010 162.4984 0001447 278.2698 81.7990 15.27582471 73478
Epoch: Jun 19, 2026 • Age: 14 hours

Current Status

Altitude 495.4 km
Velocity 7.62 km/s
Sub-Earth Point -43.07°S, 167.92°W
Launch Date Mar 3, 2025
Age 1.2 years
Type internet

Technical Details

Classification Payload
Mass 730.00 kg
Dry Mass 700.00 kg
Total Mass 730.00 kg
Length 0.30 m
Diameter 4.10 m
Span 29.00 m
Shape Box + pan
Manufacturer SPXS
Bus Type Starlink V2M
Phase Status In Orbit
Owner/State SPXS/US

Most Searched